Regional Weather Roundup
Issued by NWS

Home | Current Version | Previous Version | Text Only | Print | Product List | Glossary On
Versions: 1 2 3 4 5 6 7 8 9 10 11 12 13 14 15 16 17 18 19 20 21 22 23 24 25 26 27 28
000
ASUS44 KBMX 211310
RWRAL

ALABAMA REGIONAL WEATHER ROUNDUP
NATIONAL WEATHER SERVICE BIRMINGHAM AL
700 AM CST SAT JAN 21 2017

NOTE: "FAIR" INDICATES FEW OR NO CLOUDS BELOW 12,000 FEET
WITH NO SIGNIFICANT WEATHER AND/OR OBSTRUCTIONS TO VISIBILITY.

THE REMARK "TC" DENOTES TEMPERATURE IN DEGREES CELSIUS.

ALZ001>011-014-016>018-020-211400-
NORTH ALABAMA

CITY           SKY/WX    TMP DP  RH WIND       PRES   REMARKS
MUSCLE SHOALS  TSTM      61  56  83 S5        29.80R
HUNTSVILLE     CLOUDY    61  60  97 E7        29.75S
DECATUR        LGT RAIN  61  61 100 VRB3      29.75S
HALEYVILLE     RAIN      59  58  96 S12       29.83R
GADSDEN        LGT RAIN  59  58  96 E5        29.78F FOG
$$

ALZ012-013-022-023-030>036-040>044-211400-
WEST CENTRAL ALABAMA

CITY           SKY/WX    TMP DP  RH WIND       PRES   REMARKS
TUSCALOOSA     TSTM      60  58  92 NW16G22   29.78R FOG
$$

ALZ015-024>027-033>036-040>044-211400-
CENTRAL ALABAMA

CITY           SKY/WX    TMP DP  RH WIND       PRES   REMARKS
BIRMINGHAM     TSTM      61  59  93 NE5       29.76F
MONTGOMERY     TSTM      63  59  87 E14       29.65F
SHELBY CO ARPT TSTM      61  61 100 VRB6      29.70F FOG
MAXWELL AFB    TSTM      63  63 100 E8        29.67F
GREENVILLE     TSTM      69  66  90 S10G17    29.68F
$$

ALZ019-021-028-029-037-038-045>048-211400-
EAST CENTRAL ALABAMA

CITY           SKY/WX    TMP DP  RH WIND       PRES   REMARKS
ANNISTON       TSTM      62  62 100 NE10      29.74F FOG
ALEXANDER CITY TSTM      62  61  97 SE6       29.75R
AUBURN         CLOUDY    64  64 100 S16G24    29.75F
$$

ALZ051>064-211400-
SOUTHWEST ALABAMA

CITY           SKY/WX    TMP DP  RH WIND       PRES   REMARKS
MOBILE         CLOUDY    72  68  87 SW24G35   29.72F THUNDER
BROOKLEY FIELD CLOUDY    74  71  91 S12G22    29.74S
EVERGREEN      LGT RAIN  71  67  87 S18G29    29.70R
$$

ALZ049-050-065>069-211400-
SOUTHEAST ALABAMA

CITY           SKY/WX    TMP DP  RH WIND       PRES   REMARKS
DOTHAN         CLOUDY    68  68 100 S14       29.82R
OZARK          CLOUDY    68  68 100 S13       29.77F
TROY           CLOUDY    69  67  93 S16G23    29.73F
EUFAULA        CLOUDY    68  65  90 S9        29.76S
$$




USA.gov is the U.S. government's official web portal to all federal, state and local government web resources and services.